Weather History for Three Rivers, MI

Change the Weather History Date:

Tuesday, December 4, 2012

  Actual Average Record
Temperature  
Mean Temperature 52 °F -  
Max Temperature 63 °F 39 °F 63 °F (1970)
Min Temperature 40 °F 23 °F 9 °F (1966)
Degree Days  
Heating Degree Days 14    
Growing Degree Days 2 (Base 50)    
Moisture  
Dew Point 40 °F    
Average Humidity 72    
Maximum Humidity 91    
Minimum Humidity 49    
Precipitation  
Precipitation 0.00 in - - ()
Sea Level Pressure  
Sea Level Pressure 30.03 in    
Wind  
Wind Speed 10 mph (West)    
Max Wind Speed 20 mph    
Max Gust Speed 25 mph    
Visibility 9 miles    
Events Rain    
Averages and records for this station are not official NWS values.
T = Trace of Precipitation, MM = Missing Value Source: NWS Daily Summary

Daily Weather History Graph

Daily Weather History Graph

Search for Another Location

Airport:

Trip Planner

Search our weather history database for the weather conditions in past years. The results will help you decide how hot, cold, wet, or windy it might be!

Date:

Astronomy

Dec. 04, 2012 Rise Set
Actual Time 7:54 AM EST 5:11 PM EST
Civil Twilight 7:22 AM EST 5:42 PM EST
Nautical Twilight 6:48 AM EST 6:17 PM EST
Astronomical Twilight 6:14 AM EST 6:51 PM EST
Moon 11:01 PM EST (12/4) 11:44 AM EST (12/4)
Length of Visible Light 10h 19m
Length of Day
9h 16m
Waning Gibbous, 69% of the Moon is Illuminated
Dec 4
Waning Gibbous
Dec 6
Last Quarter
Dec 13
New
Dec 20
First Quarter
Dec 28
Full

Hourly Weather History & Observations

Time (EST) Temp. Windchill Dew Point Humidity Pressure Visibility Wind Dir Wind Speed Gust Speed Precip Events Conditions
12:13 AM 63.3 °F - 55.9 °F 77% 29.90 in 10.0 mi SSW 17.3 mph 25.3 mph N/A   Overcast
12:34 AM 63.3 °F - 55.9 °F 77% 29.90 in 10.0 mi SW 17.3 mph 24.2 mph N/A   Overcast
12:53 AM 63.5 °F - 56.1 °F 77% 29.90 in 10.0 mi SW 17.3 mph 24.2 mph N/A   Overcast
1:13 AM 63.5 °F - 56.3 °F 77% 29.90 in 10.0 mi SW 19.6 mph 23.0 mph N/A   Overcast
1:34 AM 63.9 °F - 56.3 °F 76% 29.90 in 10.0 mi SW 13.8 mph 25.3 mph N/A   Overcast
1:53 AM 63.7 °F - 56.3 °F 77% 29.90 in 10.0 mi SW 13.8 mph 21.9 mph N/A   Overcast
2:14 AM 63.9 °F - 56.3 °F 76% 29.91 in 10.0 mi SW 9.2 mph - N/A   Overcast
2:34 AM 63.7 °F - 56.5 °F 77% 29.91 in 10.0 mi SW 12.7 mph 20.7 mph N/A   Light Drizzle
2:53 AM - - - N/A% 29.91 in 10.0 mi SW 8.1 mph - N/A Rain Light Rain
3:14 AM - - - N/A% 29.91 in 3.0 mi SW 5.8 mph - N/A Rain Heavy Rain
3:53 AM - - - N/A% 29.91 in 5.0 mi SW 6.9 mph - N/A Rain Light Rain
4:14 AM 60.3 °F - 57.6 °F 91% 29.90 in 5.0 mi SW 9.2 mph - N/A Rain Light Rain
4:33 AM - - - N/A% 29.90 in 5.0 mi SW 6.9 mph - N/A Rain Rain
5:14 AM - - - N/A% 29.93 in 5.0 mi NNW 11.5 mph 21.9 mph N/A Rain Rain
5:33 AM - - - N/A% 29.94 in 4.0 mi NNW 11.5 mph - N/A Rain Heavy Rain
5:53 AM 51.4 °F - 48.0 °F 88% 29.95 in 5.0 mi NNW 12.7 mph 18.4 mph N/A Rain Heavy Rain
6:14 AM - - - N/A% 29.96 in 5.0 mi NNW 6.9 mph - N/A Rain Rain
6:33 AM 50.9 °F - 47.5 °F 88% 29.98 in 4.0 mi NW 11.5 mph - N/A Rain Heavy Rain
6:54 AM 49.6 °F - 46.0 °F 87% 30.01 in 5.0 mi WNW 8.1 mph - N/A Rain Rain
7:13 AM 49.1 °F - 45.3 °F 87% 30.03 in 7.0 mi WNW 5.8 mph - N/A Rain Rain
7:34 AM - - - N/A% 30.02 in 7.0 mi NNW 5.8 mph - N/A Rain Light Rain
7:54 AM 47.5 °F - 43.9 °F 87% 30.02 in 7.0 mi NNW 4.6 mph - N/A Rain Rain
8:13 AM 47.3 °F - 43.7 °F 87% 30.02 in 7.0 mi Calm Calm - N/A Rain Light Rain
8:34 AM 47.3 °F - 43.7 °F 87% 30.02 in 7.0 mi Calm Calm - N/A Rain Light Rain
8:54 AM 47.3 °F - 44.6 °F 90% 30.03 in 5.0 mi Calm Calm - N/A Rain Light Rain
9:13 AM 47.3 °F - 44.6 °F 90% 30.04 in 5.0 mi Calm Calm - N/A Rain Light Rain
9:34 AM 47.3 °F - 44.6 °F 90% 30.04 in 5.0 mi Calm Calm - N/A Rain Light Rain
9:54 AM 47.7 °F - 45.1 °F 91% 30.05 in 5.0 mi Calm Calm - N/A Rain Light Rain
10:13 AM 47.8 °F - 45.0 °F 90% 30.06 in 7.0 mi Calm Calm - N/A   Mostly Cloudy
10:34 AM 48.6 °F - 45.1 °F 88% 30.06 in 7.0 mi Calm Calm - N/A   Scattered Clouds
10:53 AM 48.6 °F - 44.2 °F 85% 30.05 in 10.0 mi West 3.5 mph - N/A   Mostly Cloudy
11:13 AM 48.6 °F - 43.9 °F 84% 30.06 in 10.0 mi WSW 3.5 mph - N/A   Overcast
11:34 AM 49.1 °F - 43.7 °F 82% 30.05 in 10.0 mi WSW 4.6 mph - N/A   Overcast
11:53 AM - - - N/A% - - North - - N/A   Unknown
12:13 PM - - - N/A% - - North - - N/A   Unknown
12:34 PM - - - N/A% - - North - - N/A   Unknown
12:55 PM 49.3 °F - 41.7 °F 75% 30.03 in 10.0 mi WNW 8.1 mph - N/A   Clear
1:15 PM 49.6 °F - 40.8 °F 72% 30.04 in 10.0 mi WNW 11.5 mph - N/A   Scattered Clouds
1:34 PM 50.0 °F - 40.1 °F 69% 30.04 in 10.0 mi WNW 11.5 mph 19.6 mph N/A   Mostly Cloudy
1:55 PM 50.0 °F - 38.8 °F 66% 30.04 in 10.0 mi West 10.4 mph - N/A   Scattered Clouds
2:15 PM 50.2 °F - 37.6 °F 62% 30.04 in 10.0 mi West 11.5 mph - N/A   Scattered Clouds
2:35 PM 51.1 °F - 37.0 °F 59% 30.04 in 10.0 mi West 12.7 mph - N/A   Clear
2:55 PM 51.6 °F - 35.8 °F 55% 30.04 in 10.0 mi West 12.7 mph 17.3 mph N/A   Clear
3:15 PM 51.3 °F - 35.6 °F 55% 30.04 in 10.0 mi WNW 10.4 mph 18.4 mph N/A   Clear
3:35 PM 51.4 °F - 33.4 °F 50% 30.05 in 10.0 mi WNW 12.7 mph 18.4 mph N/A   Clear
3:55 PM 50.7 °F - 32.2 °F 49% 30.06 in 10.0 mi WNW 9.2 mph - N/A   Clear
4:14 PM 49.6 °F - 33.4 °F 54% 30.06 in 10.0 mi WNW 10.4 mph - N/A   Clear
4:35 PM 49.5 °F - 32.7 °F 53% 30.07 in 10.0 mi WNW 13.8 mph 19.6 mph N/A   Clear
4:55 PM 47.7 °F - 33.4 °F 58% 30.08 in 10.0 mi West 5.8 mph - N/A   Clear
5:14 PM 47.5 °F - 32.5 °F 56% 30.08 in 10.0 mi WSW 4.6 mph - N/A   Clear
5:35 PM 47.3 °F - 32.5 °F 57% 30.09 in 10.0 mi West 4.6 mph - N/A   Clear
5:55 PM 46.4 °F - 32.5 °F 59% 30.09 in 10.0 mi Calm Calm - N/A   Clear
6:14 PM 45.0 °F 43.5 °F 32.9 °F 63% 30.10 in 10.0 mi WSW 3.5 mph - N/A   Clear
6:35 PM 45.0 °F 42.6 °F 32.9 °F 63% 30.10 in 10.0 mi WSW 4.6 mph - N/A   Clear
6:54 PM 44.4 °F 42.9 °F 32.9 °F 64% 30.10 in 10.0 mi WSW 3.5 mph - N/A   Clear
7:15 PM 44.1 °F 42.5 °F 33.1 °F 65% 30.10 in 10.0 mi WSW 3.5 mph - N/A   Clear
7:34 PM 44.1 °F 41.5 °F 33.1 °F 65% 30.11 in 10.0 mi WSW 4.6 mph - N/A   Clear
7:55 PM 45.5 °F 42.5 °F 32.9 °F 61% 30.12 in 10.0 mi West 5.8 mph - N/A   Clear
8:15 PM 46.0 °F 41.9 °F 32.7 °F 60% 30.12 in 10.0 mi West 8.1 mph - N/A   Clear
8:34 PM 44.8 °F 39.9 °F 33.1 °F 64% 30.12 in 10.0 mi West 9.2 mph - N/A   Clear
8:55 PM 44.8 °F 39.4 °F 33.6 °F 65% 30.12 in 10.0 mi West 10.4 mph - N/A   Clear
9:15 PM 44.2 °F 38.8 °F 33.8 °F 67% 30.12 in 10.0 mi West 10.4 mph - N/A   Clear
9:35 PM 43.3 °F 38.6 °F 33.6 °F 69% 30.13 in 10.0 mi WNW 8.1 mph - N/A   Clear
9:55 PM 44.1 °F 39.5 °F 33.4 °F 66% 30.14 in 10.0 mi WNW 8.1 mph - N/A   Clear
10:15 PM 44.8 °F 39.9 °F 33.8 °F 65% 30.15 in 10.0 mi NW 9.2 mph 16.1 mph N/A   Clear
10:35 PM 43.9 °F 37.9 °F 33.3 °F 66% 30.15 in 10.0 mi NW 11.5 mph 17.3 mph N/A   Clear
10:55 PM 43.0 °F 37.2 °F 32.0 °F 65% 30.15 in 10.0 mi NW 10.4 mph - N/A   Clear
11:15 PM 42.8 °F 36.6 °F 31.1 °F 63% 30.16 in 10.0 mi NW 11.5 mph 17.3 mph N/A   Clear
11:35 PM 40.6 °F 33.8 °F 31.3 °F 69% 30.18 in 10.0 mi WNW 11.5 mph - N/A   Clear
11:55 PM 40.1 °F 33.2 °F 30.9 °F 70% 30.19 in 10.0 mi NW 11.5 mph - N/A   Clear